This is the latest recevied weather packets stored in our database for station/object N2ZVN. If no packets are shown the sender has not sent any weather packets the latest 10 day(s).
| Time | Temp. | Humidity | Pressure | Rain* | Wind** | Luminosity | Snow |
|---|---|---|---|---|---|---|---|
| 1788561628 | 22.78° C | 77% | 1013.9 hPa | 0 mm | - | 25 W/m² | - |
| 1788561327 | 22.78° C | 75% | 1013.8 hPa | 0 mm | - | 28 W/m² | - |
| 1788561023 | 23.33° C | 75% | 1013.7 hPa | 0 mm | - | 24 W/m² | - |
| 1788560718 | 23.33° C | 76% | 1013.7 hPa | 0 mm | - | 23 W/m² | - |
| 1788560414 | 22.78° C | 75% | 1013.6 hPa | 0 mm | - | 34 W/m² | - |
| 1788560108 | 23.33° C | 74% | 1013.8 hPa | 0 mm | - | 40 W/m² | - |
| 1788559803 | 23.33° C | 73% | 1013.7 hPa | 0 mm | - | 42 W/m² | - |
| 1788559502 | 23.33° C | 70% | 1013.7 hPa | 0 mm | - | 44 W/m² | - |
| 1788559198 | 23.33° C | 69% | 1013.6 hPa | 0 mm | - | 35 W/m² | - |
| 1788558893 | 23.33° C | 69% | 1013.7 hPa | 0 mm | - | 45 W/m² | - |
| 1788558588 | 23.33° C | 68% | 1013.8 hPa | 0 mm | - | 49 W/m² | - |
| 1788558284 | 23.89° C | 66% | 1013.6 hPa | 0 mm | - | 59 W/m² | - |
| 1788557979 | 23.89° C | 66% | 1013.6 hPa | 0 mm | - | 62 W/m² | - |
| 1788557672 | 23.89° C | 65% | 1014 hPa | 0 mm | - | 59 W/m² | - |
| 1788557368 | 23.89° C | 66% | 1013.9 hPa | 0 mm | - | 64 W/m² | - |
| 1788557068 | 23.89° C | 65% | 1013.8 hPa | 0 mm | - | 67 W/m² | - |
| 1788556763 | 23.89° C | 65% | 1013.9 hPa | 0 mm | - | 70 W/m² | - |
| 1788556458 | 23.89° C | 63% | 1013.8 hPa | 0 mm | - | 70 W/m² | - |
| 1788556154 | 23.89° C | 63% | 1014 hPa | 0 mm | - | 97 W/m² | - |
| 1788555853 | 23.89° C | 62% | 1014.1 hPa | 0 mm | - | 83 W/m² | - |
| 1788555549 | 23.89° C | 63% | 1014.2 hPa | 0 mm | - | 90 W/m² | - |
| 1788555244 | 23.89° C | 63% | 1014.3 hPa | 0 mm | - | 95 W/m² | - |
| 1788554941 | 23.89° C | 62% | 1014.1 hPa | 0 mm | - | 89 W/m² | - |
| 1788554637 | 23.89° C | 63% | 1014.1 hPa | 0 mm | - | 95 W/m² | - |
| 1788554333 | 23.89° C | 61% | 1014.3 hPa | 0 mm | - | 85 W/m² | - |
* Rain latest hour (hover to see other rain measurements)
** Current wind speed in m/s (hover to see current wind gust speed)